Location: Bush Observatory
(40.2653°N, 94.3194°W)
Time: 22:34:01
(UTC-05:00)

Vanguard 1 - Visible Passes

Search period start: 25 May 2015 00:00
Search period end: 04 June 2015 00:00
Orbit: 650 x 3835 km, 34.3° (Epoch: 25 May)

Date Brightness Start Highest point End Pass type
(mag) Time Alt. Az. Time Alt. Az. Time Alt. Az.
25 May 12.4 01:35:49 10° WSW 01:51:07 73° S 02:14:28 10° E visible
25 May 12.8 03:58:02 10° W 04:17:32 65° SSW 04:40:14 10° ESE visible
25 May 12.3 21:20:32 10° S 21:27:34 23° SE 21:38:46 10° E visible
25 May 12.0 23:36:55 10° SW 23:48:20 58° SSE 00:08:20 10° E visible
26 May 12.4 01:57:05 10° W 02:12:50 73° S 02:36:19 10° ESE visible
26 May 12.9 04:19:35 10° W 04:39:12 60° SSW 05:01:20 10° SE visible
26 May 12.0 21:40:15 10° SSW 21:48:11 31° SE 22:01:28 10° E visible
26 May 12.0 23:57:47 10° WSW 00:09:37 64° SSE 00:30:23 10° E visible
27 May 12.5 02:18:23 10° W 02:34:34 72° S 02:58:04 10° ESE visible
27 May 13.0 04:41:12 10° W 05:00:46 53° SSW 05:22:10 10° SE visible
27 May 11.9 22:00:25 10° SSW 22:08:56 39° SE 22:23:48 10° E visible
28 May 12.0 00:18:49 10° WSW 00:31:04 69° S 00:52:23 10° E visible
28 May 12.6 02:39:45 10° W 02:56:18 68° SSW 03:19:39 10° ESE visible
28 May 13.1 05:02:58 10° W 05:22:14 46° SSW 05:42:41 10° SSE visible
28 May 11.7 22:20:54 10° SW 22:29:50 47° SSE 22:45:57 10° E visible
29 May 12.1 00:39:56 10° WSW 00:52:36 71° S 01:14:21 10° E visible
29 May 12.6 03:01:08 10° W 03:17:59 64° SSW 03:41:04 10° ESE visible
29 May 11.7 22:41:35 10° SW 22:50:54 55° SSE 23:08:01 10° E visible
30 May 12.1 01:01:06 10° W 01:14:11 71° S 01:36:16 10° ESE visible
30 May 12.7 03:22:35 10° W 03:39:38 58° SSW 04:02:13 10° SE visible
30 May 11.7 23:02:27 10° WSW 23:12:06 62° SSE 23:30:02 10° E visible
31 May 12.2 01:22:20 10° W 01:35:49 70° S 01:58:05 10° ESE visible
31 May 12.8 03:44:07 10° W 04:01:13 51° SSW 04:23:05 10° SE visible
31 May 11.6 21:05:27 10° SSW 21:12:17 35° SE 21:24:00 10° E visible
31 May 11.7 23:23:25 10° WSW 23:33:25 66° S 23:52:02 10° E visible
01 Jun 12.3 01:43:36 10° W 01:57:26 66° SSW 02:19:44 10° ESE visible
01 Jun 12.9 04:05:48 10° W 04:22:45 44° SSW 04:43:35 10° SSE visible
01 Jun 11.4 21:25:54 10° SW 21:33:07 43° SSE 21:46:04 10° E visible
01 Jun 11.7 23:44:29 10° WSW 23:54:50 69° S 00:14:00 10° E visible
02 Jun 12.3 02:04:54 10° W 02:19:03 61° SSW 02:41:10 10° SE visible
02 Jun 13.1 04:27:43 10° W 04:44:15 36° SSW 05:03:38 10° SSE visible
02 Jun 11.3 21:46:35 10° SW 21:54:07 52° SSE 22:08:03 10° E visible
03 Jun 11.8 00:05:36 10° W 00:16:19 69° S 00:35:54 10° ESE visible
03 Jun 12.4 02:26:16 10° W 02:40:39 55° SSW 03:02:21 10° SE visible
03 Jun 13.2 04:50:01 10° W 05:05:43 29° SW 05:23:07 10° S visible
03 Jun 11.3 22:07:26 10° WSW 22:15:15 58° SSE 22:29:59 10° E visible
